STARLINK-1933, 46791

Orbit data source: Space-Track

STARLINK-1933, 46791 is a payload satellite owned by SpaceX/Seattle (US) in LEO that was launched on Sat, 24 Oct 2020 UTC via an FALCON 9 launch vehicle from the Air Force Eastern Test Range (AFETR). Payloads include a variety of satellites, spacecraft, and rockets equipped with specific instruments for various scientific and technological missions. These include communications satellites like Starlink; space stations such as the ISS; scientific satellites like the Hubble; Earth observation satellites from companies like Planet Labs, Umbra, and HawkEye 360; GPS; miniature CubeSats for education and research; and military/defense satellites.

Loading next visibility...
STARLINK-1933 details
Identifier
46791, 2020-074BE
Orbit
LEO
Last TLE update7 hours ago
Origin
Flag of USSpaceX/Seattle (US)
ManufacturerSpaceX/Seattle
MissionPartially operational Commercial Communications
Bus & MotorSTARLINK, Unknown motor
Mass260 kg wet, ~248 kg dry
Launch date (UTC)
2020-10-24 (4 years ago)
Launch vehicle
FALCON 9
Launch site
Air Force Eastern Test Range (AFETR)
Object type
Payload
Rocket body
Debris
Shape & HBRBox + 1 Pan, 8.86 m
Radar Cross Section13.562 m², Large (>1 m²)

Expand to show TLE details & history

TLE from 7 hours ago
0 STARLINK-1933
1 46791U 20074BE  24361.58334491  .00202419  00000-0  15373-2 0  9992
2 46791  53.0516 106.8996 0006953 352.0193 191.6232 15.71166210230621
Epoch: 2024-12-26T14:00Z
Definitive object data (Epoch: 2024-12-26T14:00:01Z)
Latitude-2.99714°
Longitude-16.42097°
Altitude361.49 km
Speed7.691 km/s
True Right ascension19h 16m 34s
True Declination-2° 58' 41"
Sunlit
Object was in daylight at TLE epoch
Visualization TLE readout
Latitude50.87411°
Longitude-133.29793°
Altitude360.611 km
Speed7.7 km/s
Apparent Right ascension09h 54m 48s
Apparent Declination7° 35' 53"
Sunlit
Object is in full shadow
Visualization observer readout
Local Sidereal Time20:33:25
Azimuth333.715° NNW
Elevation-38.901°
Doppler factor1
Orbital elements
Apogee altitude360.524 km
Perigee altitude351.159 km
Semi-major axis6,733.979 km
Eccentricity0.0006953
Inclination53.0516°
RAAN106.8996°
Arg. of periapsis352.0193°
True anomaly191.60716°
Mean anomaly191.6232°
Eccentric anomaly191.61518°
Mean motion3.92768 °/min
BSTAR0.0015373
Orbital period91.66 mins
Loading maneuver chart data...

STARLINK-1933 Visibility forecast

Observer location: undefined°, undefined

Span
Click to sort rows by Start time (UTC) header in descending order
Start Az.
Max El. time (UTC)
Max El. Az.
Max El.
End time (UTC)
End Az.
4 mins2024-12-27 09:13:28.837Z189.039° SSW2024-12-27 09:15:28.837Z146.455° SSE21.66°2024-12-27 09:17:28.837Z86.772° E
4 mins2024-12-27 17:13:28.837Z283.253° WNW2024-12-27 17:15:28.837Z209.068° SW29.609°2024-12-27 17:17:28.837Z160.172° S
|